This is the latest recevied weather packets stored in our database for station/object N3FU-13. If no packets are shown the sender has not sent any weather packets the latest 10 day(s).
| Time | Temp. | Humidity | Pressure | Rain* | Wind** | Luminosity | Snow |
|---|---|---|---|---|---|---|---|
| 1777639334 | 25° C | 92% | 1012.5 hPa | 0 mm | - | - | - |
| 1777638434 | 24.44° C | 94% | 1012.4 hPa | 0 mm | - | - | - |
| 1777637534 | 23.89° C | 95% | 1012.3 hPa | 0 mm | - | - | - |
| 1777636634 | 23.33° C | 95% | 1012.3 hPa | 0 mm | - | - | - |
| 1777635734 | 23.33° C | 95% | 1012.2 hPa | 0 mm | - | - | - |
| 1777634834 | 23.33° C | 95% | 1012.1 hPa | 0 mm | - | - | - |
| 1777633934 | 23.33° C | 95% | 1011.9 hPa | 0 mm | - | - | - |
| 1777633034 | 23.33° C | 94% | 1011.8 hPa | 0 mm | - | - | - |
| 1777632134 | 23.33° C | 94% | 1011.6 hPa | 0 mm | - | - | - |
| 1777631234 | 23.33° C | 94% | 1011.4 hPa | 0 mm | - | - | - |
| 1777630334 | 23.33° C | 94% | 1011.1 hPa | 0 mm | - | - | - |
| 1777629434 | 23.89° C | 94% | 1011 hPa | 0 mm | - | - | - |
| 1777628534 | 23.89° C | 93% | 1011.3 hPa | 0 mm | - | - | - |
| 1777628179 | 23.89° C | 93% | 1011.3 hPa | 0 mm | - | - | - |
| 1777627634 | 23.89° C | 93% | 1011.3 hPa | 0 mm | - | - | - |
| 1777626734 | 23.89° C | 93% | 1011.3 hPa | 0 mm | - | - | - |
| 1777625834 | 23.89° C | 93% | 1011.1 hPa | 0 mm | - | - | - |
| 1777624934 | 23.89° C | 93% | 1011.1 hPa | 0 mm | - | - | - |
| 1777624034 | 23.89° C | 93% | 1011 hPa | 0 mm | - | - | - |
| 1777623134 | 23.89° C | 93% | 1010.7 hPa | 0 mm | - | - | - |
| 1777622311 | 24.44° C | 93% | 1010.9 hPa | 0 mm | - | - | - |
| 1777622234 | 24.44° C | 93% | 1010.9 hPa | 0 mm | - | - | - |
| 1777621334 | 24.44° C | 93% | 1011.1 hPa | 0 mm | - | - | - |
| 1777620434 | 24.44° C | 93% | 1011.3 hPa | 0 mm | - | - | - |
| 1777619534 | 24.44° C | 93% | 1011.3 hPa | 0 mm | - | - | - |
* Rain latest hour (hover to see other rain measurements)
** Current wind speed in m/s (hover to see current wind gust speed)